TimeEST,TemperatureF,Dew PointF,Humidity,Sea Level PressureIn,VisibilityMPH,Wind Direction,Wind SpeedMPH,Gust SpeedMPH,PrecipitationIn,Events,Conditions,WindDirDegrees,DateUTC
12:54 AM,51.1,41.0,68,30.11,10.0,SSE,3.5,-,N/A,,Clear,150,2012-11-21 05:54:00
1:54 AM,46.9,39.0,74,30.11,10.0,Calm,Calm,-,N/A,,Clear,0,2012-11-21 06:54:00
2:54 AM,46.0,36.0,68,30.12,10.0,NE,3.5,-,N/A,,Clear,50,2012-11-21 07:54:00
3:54 AM,43.0,36.0,76,30.12,10.0,Calm,Calm,-,N/A,,Clear,0,2012-11-21 08:54:00
4:54 AM,42.1,36.0,79,30.14,10.0,North,3.5,-,N/A,,Clear,10,2012-11-21 09:54:00
5:54 AM,42.1,37.0,82,30.16,10.0,NE,4.6,-,N/A,,Overcast,40,2012-11-21 10:54:00
6:54 AM,43.0,36.0,76,30.18,10.0,Calm,Calm,-,N/A,,Overcast,0,2012-11-21 11:54:00
7:54 AM,43.0,37.0,80,30.19,10.0,Calm,Calm,-,N/A,,Overcast,0,2012-11-21 12:54:00
8:54 AM,48.0,39.9,74,30.21,10.0,Calm,Calm,-,N/A,,Clear,0,2012-11-21 13:54:00
9:54 AM,54.0,42.1,64,30.22,10.0,Calm,Calm,-,N/A,,Clear,0,2012-11-21 14:54:00
10:54 AM,60.1,43.0,53,30.22,10.0,ENE,3.5,-,N/A,,Clear,60,2012-11-21 15:54:00
11:54 AM,63.0,37.9,40,30.22,10.0,Variable,4.6,-,N/A,,Partly Cloudy,0,2012-11-21 16:54:00
12:54 PM,64.0,37.9,38,30.20,10.0,ENE,6.9,-,N/A,,Clear,60,2012-11-21 17:54:00
1:54 PM,63.0,37.9,40,30.20,10.0,NNE,6.9,-,N/A,,Clear,30,2012-11-21 18:54:00
2:54 PM,63.0,37.9,40,30.19,10.0,NE,3.5,-,N/A,,Clear,50,2012-11-21 19:54:00
3:54 PM,63.0,41.0,45,30.19,10.0,North,4.6,-,N/A,,Clear,350,2012-11-21 20:54:00
4:54 PM,59.0,39.9,49,30.20,10.0,NNW,3.5,-,N/A,,Clear,340,2012-11-21 21:54:00
5:54 PM,57.0,39.0,51,30.21,10.0,Calm,Calm,-,N/A,,Clear,0,2012-11-21 22:54:00
6:54 PM,53.1,39.0,59,30.22,10.0,Calm,Calm,-,N/A,,Clear,0,2012-11-21 23:54:00
7:54 PM,46.0,39.0,76,30.23,10.0,NW,3.5,-,N/A,,Clear,320,2012-11-22 00:54:00
8:54 PM,46.9,37.9,71,30.22,10.0,Calm,Calm,-,N/A,,Clear,0,2012-11-22 01:54:00
9:54 PM,46.0,37.9,73,30.22,10.0,Calm,Calm,-,N/A,,Clear,0,2012-11-22 02:54:00
10:54 PM,42.1,37.0,82,30.22,10.0,Calm,Calm,-,N/A,,Clear,0,2012-11-22 03:54:00
11:54 PM,39.9,36.0,86,30.22,10.0,Calm,Calm,-,N/A,,Clear,0,2012-11-22 04:54:00